Content
SEND FEEDBACK

Daily
Averages
Monthly
Summary
Switzerland

GENEVA, SWITZERLAND


Home > Europe > Switzerland
Elevation: 1364 feet     Latitude: 46 15N     Longitude: 006 08E

WEATHER
 
SELECT A DAY
Number of Records: 313,079;   Date Range: 7/1/96 - 10/19/14
 
SHARE

PRINT THIS DATA

[ ← Previous Day ]
WEATHER ALMANAC - JANUARY 24, 2013
[ Next Day → ]
[ °C ]   °F
Weather ElementAverageHighLow
Temperature30.2 °F33 °F (5:00 pm)23 °F (3:20 am)
Dewpoint25.7 °F28.4 °F (7:20 am)22 °F (2:00 am)
Humidity81.7 %100 % (1:20 am)59 % (11:00 pm)
Barometer29.75 in29.94 in (11:00 pm)29.62 in (4:20 am)
Wind Speed8.2 mph17.3 mph (6:00 pm)
Weather ElementAverage
Visibility5.3 mi
Wind DirectionENE (60.3 °)

Weather ElementTotal
Precipitation---
Heating Degree Days37 (Base 65)
Averaged from 66 records on January 24, 2013
WEATHER CONDITIONS BREAKOUT
WIND DIRECTION BREAKOUT
WEATHER BY HOUR - JANUARY 24, 2013
[ °C ]   °F
Local TimeTemperatureDewpointHumidityBarometerVisibilityWind DirectionWind SpeedGust SpeedPrecipitationEventsConditions
12:20 AM26.6 °F24.8 °F93 %29.68 inCalmClear
12:50 AM26.6 °F24.8 °F93 %29.68 inWSW (250°)2.3 mphClear
1:00 AM26.0 °F24.0 °F90 %29.76 in6.0 miWSW (250°)1.2 mphMist
1:20 AM24.8 °F24.8 °F100 %29.65 inVariable1.2 mphClear
1:50 AM24.8 °F24.8 °F100 %29.65 inVariable1.2 mphClear
2:00 AM25.0 °F22.0 °F86 %29.75 inWNW (290°)2.3 mph
2:50 AM24.8 °F23.0 °F93 %29.65 in5.6 miVariable2.3 mphMostly Cloudy
3:00 AM25.0 °F23.0 °F89 %29.74 inSW (220°)2.3 mph
3:20 AM23.0 °F23.0 °F100 %29.65 in5.0 miVariable2.3 mphMostly Cloudy
3:50 AM24.8 °F23.0 °F93 %29.65 in5.0 miVariable1.2 mphMostly Cloudy
4:20 AM24.8 °F23.0 °F93 %29.62 in5.0 miCalmMostly Cloudy
4:50 AM24.8 °F24.8 °F100 %29.65 in5.0 miSW (220°)2.3 mphMostly Cloudy
5:00 AM26.0 °F23.0 °F85 %29.73 inSW (220°)2.3 mph
5:20 AM26.6 °F24.8 °F93 %29.62 in5.0 miWSW (250°)2.3 mphMostly Cloudy
5:50 AM28.4 °F26.6 °F93 %29.65 in5.0 miSW (220°)2.3 mphMostly Cloudy
6:00 AM28.0 °F25.0 °F84 %29.73 inWest (280°)2.3 mph
6:20 AM28.4 °F26.6 °F93 %29.65 in4.3 miCalmMostly Cloudy
6:50 AM28.4 °F26.6 °F93 %29.65 in4.3 miCalmMostly Cloudy
7:00 AM29.0 °F26.0 °F84 %29.74 in4.0 miNNW (340°)1.2 mphMist
7:20 AM30.2 °F28.4 °F93 %29.68 in3.7 miNE (40°)6.9 mphMostly Cloudy
7:50 AM32.0 °F28.4 °F87 %29.68 in3.7 miENE (60°)5.8 mphMostly Cloudy
8:00 AM31.0 °F28.0 °F83 %29.75 inNE (50°)6.9 mph
8:20 AM32.0 °F28.4 °F87 %29.68 in3.1 miNE (40°)6.9 mphMostly Cloudy
8:50 AM32.0 °F28.4 °F87 %29.68 in3.1 miNE (40°)6.9 mphMostly Cloudy
9:00 AM31.0 °F28.0 °F81 %29.76 inNE (50°)8.1 mph
9:20 AM32.0 °F28.4 °F87 %29.68 in4.3 miNE (50°)5.8 mphMostly Cloudy
9:50 AM32.0 °F28.4 °F87 %29.71 in4.3 miNNE (30°)6.9 mphMostly Cloudy
10:20 AM30.2 °F26.6 °F86 %29.71 in4.3 miNNE (20°)4.6 mphMostly Cloudy
10:50 AM30.2 °F26.6 °F86 %29.71 in5.0 miNNE (30°)8.1 mphMostly Cloudy
11:00 AM31.0 °F26.0 °F76 %29.79 inNNE (30°)9.2 mph
11:20 AM30.2 °F26.6 °F86 %29.71 in4.3 miNNE (20°)6.9 mphMostly Cloudy
11:50 AM32.0 °F28.4 °F87 %29.71 in4.3 miNNE (20°)10.4 mphMostly Cloudy
12:00 PM32.0 °F26.0 °F71 %29.79 inNNE (20°)12.7 mph
12:20 PM32.0 °F26.6 °F80 %29.71 in4.3 miNNE (30°)11.5 mphMostly Cloudy
12:50 PM32.0 °F26.6 °F80 %29.71 in5.0 miNNE (30°)12.7 mphMostly Cloudy
1:00 PM32.0 °F26.0 °F72 %29.78 in5.0 miNNE (30°)12.7 mphMist
1:20 PM32.0 °F26.6 °F80 %29.71 in5.0 miNNE (30°)11.5 mphMostly Cloudy
1:50 PM32.0 °F26.6 °F80 %29.71 in5.6 miNNE (20°)12.7 mphMostly Cloudy
2:00 PM32.0 °F26.0 °F70 %29.78 inNNE (20°)11.5 mph
2:20 PM32.0 °F26.6 °F80 %29.71 in5.0 miNNE (30°)9.2 mphMostly Cloudy
2:50 PM32.0 °F26.6 °F80 %29.71 in5.6 miNNE (30°)11.5 mphMostly Cloudy
3:00 PM32.0 °F26.0 °F71 %29.78 inNNE (30°)13.8 mph
3:20 PM32.0 °F26.6 °F80 %29.71 in6.2 miNNE (30°)12.7 mphMostly Cloudy
3:50 PM32.0 °F26.6 °F80 %29.74 in6.2 miNNE (30°)10.4 mphMostly Cloudy
4:20 PM32.0 °F26.6 °F80 %29.74 in6.2 miNE (40°)13.8 mphMostly Cloudy
4:50 PM32.0 °F26.6 °F80 %29.74 in6.2 miNNE (30°)11.5 mphMostly Cloudy
5:00 PM33.0 °F25.0 °F62 %29.82 inNNE (30°)12.7 mph
5:20 PM32.0 °F26.6 °F80 %29.77 in6.2 miNNE (30°)12.7 mphMostly Cloudy
5:50 PM32.0 °F26.6 °F80 %29.77 in6.2 miNE (40°)12.7 mphMostly Cloudy
6:00 PM33.0 °F25.0 °F63 %29.85 inNE (40°)17.3 mph
6:20 PM32.0 °F26.6 °F80 %29.80 in6.2 miNE (50°)17.3 mphMostly Cloudy
6:50 PM32.0 °F26.6 °F80 %29.80 in6.2 miNE (40°)16.1 mphMostly Cloudy
7:00 PM33.0 °F25.0 °F62 %29.87 in7.0 miNNE (30°)15.0 mphMist
7:20 PM32.0 °F26.6 °F80 %29.80 in6.2 miNE (40°)15.0 mphMostly Cloudy
7:50 PM32.0 °F24.8 °F75 %29.83 in6.2 miNNE (30°)11.5 mphMostly Cloudy
8:00 PM33.0 °F25.0 °F61 %29.90 inNNE (30°)9.2 mph
8:20 PM32.0 °F24.8 °F75 %29.83 in6.2 miNNE (20°)12.7 mphMostly Cloudy
8:50 PM32.0 °F24.8 °F75 %29.83 in6.2 miNNE (20°)9.2 mphOvercast
9:00 PM32.0 °F24.0 °F62 %29.92 inNNE (20°)10.4 mph
9:20 PM32.0 °F24.8 °F75 %29.86 in6.2 miNNE (30°)11.5 mphOvercast
9:50 PM32.0 °F24.8 °F75 %29.86 in6.2 miNNE (20°)13.8 mphOvercast
10:20 PM32.0 °F24.8 °F75 %29.86 in6.2 miNNE (20°)8.1 mphOvercast
10:50 PM32.0 °F24.8 °F75 %29.86 in6.2 miNNE (20°)10.4 mphMostly Cloudy
11:00 PM32.0 °F23.0 °F59 %29.94 inNorth (10°)11.5 mph
11:20 PM32.0 °F24.8 °F75 %29.86 in6.2 miNNE (20°)10.4 mphOvercast
11:50 PM32.0 °F23.0 °F69 %29.89 in6.2 miNNE (20°)10.4 mphMostly Cloudy
Hourly data recorded from LSGG, located miles away from Geneva, Switzerland







STORIES FROM OUR PARTNERS